Location: Molveno
(46.1500°N, 10.9667°E)
Time: 00:44:16
(UTC+00:00)

Cosmos 2151 - Pass Details

Date: 05 July 2020
Orbit: 580 x 602 km, 82.5° (Epoch: 11 August)

Event Time Altitude Azimuth Distance (km) Brightness Sun altitude
Exits shadow 21:47:15 28° 113° (ESE) 1,122 4.0 -18.0°
Maximum altitude 21:48:06 31° 90° (E) 1,061 4.0 -18.0°
Drops below altitude 10° 21:51:53 10° 29° (NNE) 1,942 6.1 -18.3°
Sets 21:54:16 0° 19° (NNE) 2,846 7.3 -18.4°
